Time,TemperatureF,DewpointF,PressureIn,WindDirection,WindDirectionDegrees,WindSpeedMPH,WindSpeedGustMPH,Humidity,HourlyPrecipIn,Conditions,Clouds,dailyrainin,SoftwareType,DateUTC
2013-12-31 00:12:00,14.0,11.0,30.23,WSW,244,2.0,4.0,87,0.00,,,0.01,,2013-12-31 05:12:00,
2013-12-31 00:22:00,14.0,11.0,30.22,ESE,113,1.0,5.0,87,0.00,,,0.01,,2013-12-31 05:22:00,
2013-12-31 00:42:00,14.0,11.0,30.22,East,100,0.0,4.0,87,0.00,,,0.01,,2013-12-31 05:42:00,
2013-12-31 00:53:00,14.0,11.0,30.22,SSW,200,1.0,5.0,86,0.00,,,0.01,,2013-12-31 05:53:00,
2013-12-31 01:12:00,14.0,11.0,30.21,SW,220,1.0,5.0,87,0.00,,,0.01,,2013-12-31 06:12:00,
2013-12-31 01:22:00,14.0,11.0,30.21,South,184,1.0,4.0,87,0.00,,,0.01,,2013-12-31 06:22:00,
2013-12-31 01:43:00,14.0,11.0,30.20,South,173,0.0,4.0,87,0.00,,,0.01,,2013-12-31 06:43:00,
2013-12-31 01:52:00,14.0,11.0,30.20,SW,227,0.0,2.0,87,0.00,,,0.01,,2013-12-31 06:52:00,
2013-12-31 02:12:00,14.0,11.0,30.20,SSE,161,0.0,3.0,87,0.00,,,0.01,,2013-12-31 07:12:00,
2013-12-31 02:22:00,14.0,11.0,30.20,SSE,158,0.0,5.0,87,0.00,,,0.01,,2013-12-31 07:22:00,
2013-12-31 02:42:00,14.0,11.0,30.20,SW,227,0.0,3.0,88,0.00,,,0.01,,2013-12-31 07:42:00,
2013-12-31 02:52:00,14.0,11.0,30.20,South,186,0.0,3.0,87,0.00,,,0.01,,2013-12-31 07:52:00,
2013-12-31 03:11:00,14.0,11.0,30.20,SW,236,0.0,3.0,87,0.00,,,0.01,,2013-12-31 08:11:00,
2013-12-31 03:22:00,14.0,11.0,30.20,WSW,254,0.0,3.0,87,0.00,,,0.01,,2013-12-31 08:22:00,
2013-12-31 03:42:00,14.0,11.0,30.20,WSW,252,0.0,3.0,87,0.00,,,0.01,,2013-12-31 08:42:00,
2013-12-31 03:52:00,14.0,11.0,30.20,WNW,292,0.0,3.0,87,0.00,,,0.01,,2013-12-31 08:52:00,
2013-12-31 04:02:00,14.0,11.0,30.20,WNW,292,0.0,3.0,87,0.00,,,0.01,,2013-12-31 09:02:00,
2013-12-31 04:22:00,14.0,11.0,30.20,WNW,292,0.0,3.0,88,0.00,,,0.01,,2013-12-31 09:22:00,
2013-12-31 04:43:00,14.0,11.0,30.19,WSW,248,0.0,4.0,88,0.00,,,0.01,,2013-12-31 09:43:00,
2013-12-31 04:53:00,14.0,11.0,30.20,West,275,0.0,3.0,88,0.00,,,0.01,,2013-12-31 09:53:00,
2013-12-31 05:13:00,14.0,11.0,30.20,NNW,334,0.0,0.0,88,0.00,,,0.01,,2013-12-31 10:13:00,
2013-12-31 05:23:00,14.0,11.0,30.21,NW,308,0.0,1.0,88,0.00,,,0.01,,2013-12-31 10:23:00,
2013-12-31 05:43:00,14.0,11.0,30.21,SE,130,0.0,2.0,88,0.00,,,0.01,,2013-12-31 10:43:00,
2013-12-31 05:53:00,14.0,11.0,30.21,NW,320,0.0,2.0,88,0.00,,,0.01,,2013-12-31 10:53:00,
2013-12-31 06:12:00,14.0,11.0,30.21,NW,324,0.0,4.0,87,0.00,,,0.01,,2013-12-31 11:12:00,
2013-12-31 06:22:00,14.0,11.0,30.22,NW,305,0.0,3.0,86,0.00,,,0.01,,2013-12-31 11:22:00,
2013-12-31 06:43:00,14.0,11.0,30.22,WSW,257,0.0,4.0,86,0.00,,,0.01,,2013-12-31 11:43:00,
2013-12-31 06:52:00,14.0,11.0,30.22,NNW,340,0.0,7.0,86,0.00,,,0.01,,2013-12-31 11:52:00,
2013-12-31 07:11:00,14.0,11.0,30.23,NNW,335,0.0,1.0,87,0.00,,,0.01,,2013-12-31 12:11:00,
2013-12-31 07:22:00,14.0,11.0,30.24,WNW,291,1.0,5.0,86,0.00,,,0.01,,2013-12-31 12:22:00,
2013-12-31 07:42:00,14.0,11.0,30.25,SE,134,0.0,1.0,86,0.00,,,0.01,,2013-12-31 12:42:00,
2013-12-31 07:52:00,14.0,11.0,30.25,NW,316,1.0,6.0,86,0.00,,,0.01,,2013-12-31 12:52:00,
2013-12-31 08:12:00,14.0,10.0,30.26,NNW,341,1.0,7.0,85,0.00,,,0.01,,2013-12-31 13:12:00,
2013-12-31 08:22:00,14.0,10.0,30.26,NNW,338,2.0,6.0,85,0.00,,,0.01,,2013-12-31 13:22:00,
2013-12-31 08:42:00,14.0,11.0,30.27,North,355,0.0,2.0,86,0.00,,,0.01,,2013-12-31 13:42:00,
2013-12-31 08:52:00,14.0,11.0,30.28,NW,311,0.0,3.0,86,0.00,,,0.01,,2013-12-31 13:52:00,
2013-12-31 09:11:00,14.0,11.0,30.29,NW,311,0.0,1.0,86,0.00,,,0.01,,2013-12-31 14:11:00,
2013-12-31 09:23:00,14.0,11.0,30.28,SE,132,0.0,1.0,86,0.00,,,0.01,,2013-12-31 14:23:00,
2013-12-31 09:42:00,14.0,11.0,30.28,SE,134,0.0,1.0,86,0.00,,,0.01,,2013-12-31 14:42:00,
2013-12-31 09:52:00,14.0,11.0,30.30,NW,321,0.0,3.0,86,0.00,,,0.01,,2013-12-31 14:52:00,
2013-12-31 10:11:00,14.0,11.0,30.31,West,269,0.0,2.0,86,0.00,,,0.01,,2013-12-31 15:11:00,
2013-12-31 10:22:00,15.0,11.0,30.32,South,171,1.0,4.0,85,0.00,,,0.01,,2013-12-31 15:22:00,
2013-12-31 10:43:00,13.0,9.0,30.35,SSE,158,1.0,4.0,84,0.00,,,0.01,,2013-12-31 15:43:00,
2013-12-31 10:53:00,11.0,7.0,30.34,SE,138,2.0,6.0,85,0.00,,,0.01,,2013-12-31 15:53:00,
2013-12-31 11:13:00,11.0,7.0,30.36,SSE,149,3.0,6.0,85,0.00,,,0.01,,2013-12-31 16:13:00,
2013-12-31 11:23:00,11.0,7.0,30.37,SSE,164,0.0,8.0,85,0.00,,,0.01,,2013-12-31 16:23:00,
2013-12-31 11:42:00,11.0,7.0,30.38,South,172,2.0,6.0,84,0.00,,,0.00,,2013-12-31 16:42:00,
2013-12-31 11:52:00,12.0,8.0,30.39,WSW,248,1.0,6.0,84,0.00,,,0.00,,2013-12-31 16:52:00,
2013-12-31 12:12:00,13.0,8.0,30.39,SE,139,0.0,4.0,81,0.00,,,0.00,,2013-12-31 17:12:00,
2013-12-31 12:22:00,13.0,8.0,30.39,SE,139,0.0,4.0,81,0.00,,,0.00,,2013-12-31 17:22:00,
2013-12-31 12:42:00,14.0,8.0,30.38,SE,127,3.0,8.0,78,0.00,,,0.00,,2013-12-31 17:42:00,
2013-12-31 12:53:00,14.0,8.0,30.37,SW,222,0.0,5.0,75,0.00,,,0.00,,2013-12-31 17:53:00,
2013-12-31 13:12:00,14.0,8.0,30.37,NNW,344,2.0,5.0,75,0.00,,,0.00,,2013-12-31 18:12:00,
2013-12-31 13:22:00,15.0,9.0,30.36,SE,141,0.0,5.0,75,0.00,,,0.00,,2013-12-31 18:22:00,
2013-12-31 13:42:00,15.0,8.0,30.37,South,171,0.0,4.0,74,0.00,,,0.00,,2013-12-31 18:42:00,
2013-12-31 13:53:00,14.0,8.0,30.36,SE,136,0.0,6.0,75,0.00,,,0.00,,2013-12-31 18:53:00,
2013-12-31 14:12:00,14.0,8.0,30.35,South,170,3.0,7.0,75,0.00,,,0.00,,2013-12-31 19:12:00,
2013-12-31 14:22:00,14.0,8.0,30.36,NW,320,2.0,9.0,75,0.00,,,0.00,,2013-12-31 19:22:00,
2013-12-31 14:43:00,15.0,9.0,30.35,SW,228,1.0,6.0,77,0.00,,,0.00,,2013-12-31 19:43:00,
2013-12-31 14:52:00,15.0,9.0,30.35,South,178,1.0,4.0,75,0.00,,,0.00,,2013-12-31 19:52:00,
2013-12-31 15:11:00,15.0,9.0,30.35,SSE,153,1.0,5.0,75,0.00,,,0.00,,2013-12-31 20:11:00,
2013-12-31 15:21:00,15.0,8.0,30.34,West,268,0.0,4.0,74,0.00,,,0.00,,2013-12-31 20:21:00,
2013-12-31 15:42:00,15.0,9.0,30.34,West,273,0.0,3.0,76,0.00,,,0.00,,2013-12-31 20:42:00,
2013-12-31 15:53:00,15.0,9.0,30.35,SE,142,0.0,4.0,77,0.00,,,0.00,,2013-12-31 20:53:00,
2013-12-31 16:11:00,15.0,9.0,30.35,SE,145,2.0,5.0,77,0.00,,,0.00,,2013-12-31 21:11:00,
2013-12-31 16:22:00,15.0,9.0,30.35,SSE,168,1.0,5.0,78,0.00,,,0.00,,2013-12-31 21:22:00,
2013-12-31 16:43:00,15.0,11.0,30.36,SE,125,1.0,4.0,82,0.00,,,0.00,,2013-12-31 21:43:00,
2013-12-31 16:53:00,14.0,10.0,30.36,SSE,159,1.0,4.0,84,0.00,,,0.00,,2013-12-31 21:53:00,
2013-12-31 17:13:00,14.0,11.0,30.35,SSE,159,0.0,2.0,86,0.00,,,0.00,,2013-12-31 22:13:00,
2013-12-31 17:23:00,14.0,11.0,30.35,SSE,159,1.0,3.0,87,0.00,,,0.00,,2013-12-31 22:23:00,
2013-12-31 17:53:00,14.0,11.0,30.35,SSE,160,0.0,4.0,88,0.00,,,0.00,,2013-12-31 22:53:00,
2013-12-31 18:12:00,14.0,11.0,30.35,SSE,160,1.0,4.0,88,0.00,,,0.00,,2013-12-31 23:12:00,
2013-12-31 18:22:00,14.0,11.0,30.35,SSE,160,0.0,2.0,88,0.00,,,0.00,,2013-12-31 23:22:00,
2013-12-31 18:33:00,14.0,11.0,30.35,SSE,160,0.0,2.0,88,0.00,,,0.00,,2013-12-31 23:33:00,
2013-12-31 18:43:00,14.0,11.0,30.35,SSE,160,0.0,2.0,88,0.00,,,0.00,,2013-12-31 23:43:00,
2013-12-31 18:53:00,14.0,11.0,30.35,SSE,161,0.0,4.0,89,0.00,,,0.00,,2013-12-31 23:53:00,
2013-12-31 19:12:00,14.0,11.0,30.35,SSE,161,0.0,3.0,89,0.00,,,0.00,,2014-01-01 00:12:00,
2013-12-31 19:22:00,14.0,11.0,30.35,SSE,161,0.0,1.0,88,0.00,,,0.00,,2014-01-01 00:22:00,
2013-12-31 19:42:00,14.0,11.0,30.35,SSE,161,0.0,2.0,88,0.00,,,0.00,,2014-01-01 00:42:00,
2013-12-31 19:52:00,14.0,11.0,30.35,SSE,161,0.0,2.0,89,0.00,,,0.00,,2014-01-01 00:52:00,
2013-12-31 20:11:00,14.0,11.0,30.35,SSE,161,0.0,2.0,89,0.00,,,0.00,,2014-01-01 01:11:00,
2013-12-31 20:22:00,14.0,11.0,30.35,SSE,161,0.0,2.0,89,0.00,,,0.00,,2014-01-01 01:22:00,
2013-12-31 20:42:00,14.0,12.0,30.36,SSE,161,0.0,3.0,90,0.00,,,0.00,,2014-01-01 01:42:00,
2013-12-31 20:52:00,14.0,11.0,30.37,SSE,161,0.0,3.0,89,0.00,,,0.00,,2014-01-01 01:52:00,
2013-12-31 21:22:00,14.0,11.0,30.37,SSE,161,0.0,2.0,89,0.00,,,0.00,,2014-01-01 02:22:00,
2013-12-31 21:42:00,14.0,11.0,30.38,SSE,161,0.0,3.0,89,0.00,,,0.00,,2014-01-01 02:42:00,
2013-12-31 21:52:00,14.0,12.0,30.39,SSE,161,0.0,3.0,90,0.00,,,0.00,,2014-01-01 02:52:00,
2013-12-31 22:12:00,14.0,11.0,30.39,SSE,161,0.0,2.0,89,0.00,,,0.00,,2014-01-01 03:12:00,
2013-12-31 22:22:00,14.0,12.0,30.39,SSE,161,0.0,2.0,90,0.00,,,0.00,,2014-01-01 03:22:00,
2013-12-31 22:43:00,14.0,12.0,30.39,SSE,161,0.0,1.0,90,0.00,,,0.00,,2014-01-01 03:43:00,
2013-12-31 22:53:00,14.0,12.0,30.39,SSE,161,0.0,0.0,90,0.00,,,0.00,,2014-01-01 03:53:00,
2013-12-31 23:13:00,14.0,12.0,30.37,SSE,161,0.0,0.0,90,0.00,,,0.00,,2014-01-01 04:13:00,
2013-12-31 23:23:00,15.0,13.0,30.37,SSE,161,0.0,2.0,90,0.00,,,0.00,,2014-01-01 04:23:00,
2013-12-31 23:43:00,15.0,13.0,30.37,SSE,161,0.0,1.0,90,0.00,,,0.00,,2014-01-01 04:43:00,
2013-12-31 23:53:00,15.0,13.0,30.37,SSE,161,0.0,0.0,90,0.00,,,0.00,,2014-01-01 04:53:00,